Location: Palm Bay
(27.9400°N, 80.7200°W)
Time: 05:16:58
(UTC-05:00)

Daily predictions for brighter satellites

Satellite Brightness Start Highest point End
(mag) Time Altitude Azimuth Time Altitude Azimuth Time Altitude Azimuth
H-2A R/B (2) 4.1 03:29:28 75° E 03:29:28 75° E 04:41:28 10° E
CENTAUR R/B 4.5 04:11:31 17° NNE 04:11:31 17° NNE 04:12:59 10° NNE
Centaur D-1AR AC-39 3.4 04:15:18 38° SE 04:15:18 38° SE 04:17:46 10° ESE
H-II Stage 2 4.4 04:34:22 45° SW 04:37:55 75° SSE 10:56:33 10° ESE
Thor Agena Rocket 4.3 04:34:02 10° SE 04:38:51 47° ENE 04:39:44 42° NE
SL-24 R/B - RUBIN 2 4.2 04:42:26 78° ESE 04:42:26 78° ESE 04:47:33 10° SSE
Lacrosse 5 3.8 04:44:11 10° S 04:48:32 29° ESE 04:52:53 10° ENE
Meteor 1-14 Rocket 4.1 04:45:21 10° S 04:51:06 88° E 04:56:44 10° N
DELTA 2 R/B (1) 4.3 05:01:35 38° N 05:02:26 41° NNE 05:07:39 10° E
BREEZE-M DEB (TANK) 3.1 05:02:43 79° NNE 05:02:43 79° NNE 05:10:04 10° NE
USA 116 4.0 05:00:41 10° SSE 05:03:57 65° SSE 05:03:57 65° SSE
Cosmos 972 Rocket 4.0 05:07:48 55° SW 05:07:48 55° SW 05:11:59 10° S
Cosmos 2074 Rocket 4.2 05:02:19 10° S 05:08:33 70° E 05:14:47 10° N
Orbus 7S 4.1 05:08:45 57° W 05:09:50 85° S 05:22:45 10° E
Meteor 1-25 Rocket 4.2 05:08:33 10° S 05:14:23 88° W 05:20:14 10° N
Cosmos 2278 Rocket 2.3 05:14:02 50° W 05:14:29 52° WSW 05:19:56 10° S
SL-16 R/B 3.2 05:17:22 28° NNW 05:17:22 28° NNW 05:20:26 10° N
Cosmos 2184 Rocket 3.9 05:16:04 10° S 05:22:13 88° E 05:28:24 10° N
Cosmos 292 Rocket 4.1 05:23:40 43° NW 05:23:40 43° NW 05:27:33 10° N
Ariane Rocket 3.9 05:19:50 10° NNE 05:24:43 49° E 05:29:36 10° S
Iridium 2 3.5 05:27:28 10° S 05:31:16 76° W 05:35:03 10° N
Cosmos 1812 2.9 05:28:27 14° N 05:31:42 71° E 05:35:32 10° SSE
GPS 2-05 Rocket1 4.5 05:32:52 23° N 05:32:53 23° N 05:35:48 10° NE
Cosmos 1346 Rocket 4.3 05:30:51 10° NNE 05:34:27 36° E 05:38:06 10° SSE
Timation 1 Rocket 4.3 05:30:47 15° NNW 05:35:57 88° WSW 05:41:57 10° SSE
Cosmos 1680 Rocket 4.4 05:38:54 27° NW 05:38:54 27° NW 05:42:21 10° N
SL-08 ROCKET BODY 4.3 05:31:59 10° SSW 05:37:56 62° W 05:43:48 10° N
USA 215 4.2 05:34:01 10° NNE 05:39:13 26° NW 05:40:47 24° WNW
SKYMED 2 3.9 05:36:56 10° SSE 05:41:12 65° ENE 05:45:30 10° N
Cosmos 2151 Rocket 3.9 05:37:24 10° SSW 05:41:42 44° W 05:46:00 10° N
SWIFT 3.8 05:40:43 18° SW 05:43:05 29° S 05:46:49 10° ESE
CZ-4 R/B 4.1 05:40:17 10° NE 05:43:16 21° E 05:46:13 10° SSE
TIMED 4.4 05:47:32 13° NNW 05:51:23 72° WSW 05:55:43 10° S
Cosmos 1536 4.3 05:48:38 10° SSE 05:52:20 39° E 05:56:04 10° NNE
Cosmos 1633 2.9 05:50:14 10° S 05:53:51 68° E 05:57:30 10° NNE
CZ-3 R/B 2.2 05:42:30 10° WSW 05:56:15 57° S 06:00:15 10° E
CSL-04 DEB 4.4 05:53:54 10° N 05:57:55 62° WNW 06:02:02 10° SSW
CENTAUR R/B 4.3 05:58:46 11° NW 05:58:46 11° NW 06:00:17 10° NNW
Abrixas rocket 2.6 05:57:57 21° WSW 05:59:52 43° NW 06:03:06 10° NNE
Cosmos 1610 Rocket 4.5 05:55:31 10° SSW 06:01:33 60° W 06:07:41 10° N
Cosmos 1536 Rocket 4.0 06:08:24 10° NNW 06:12:34 41° W 06:16:42 10° SSW
Cosmos 1603 4.2 06:07:24 10° SW 06:12:35 36° WNW 06:17:47 10° N
Gbstr 26 Del rocket 2.8 06:08:43 12° NW 06:12:49 84° SW 06:16:41 10° SE
CSL-04 Debris 4.1 06:08:21 10° N 06:13:48 77° WNW 06:19:16 10° SSW
CSL-04 Rocket 3.7 06:08:37 10° N 06:14:06 64° WNW 06:19:30 10° SSW
CZ-2C R/B 3.8 06:09:34 10° NNE 06:14:30 45° E 06:19:18 10° S
Cosmos 1238 Rocket 4.3 06:10:14 10° NNW 06:14:46 34° W 06:20:04 10° SSW
DASH 3.0 06:17:01 11° W 06:19:58 82° N 06:30:13 10° E
YAOGAN 1 4.0 06:15:52 10° NNE 06:19:59 43° E 06:24:06 10° S
Cosmos 44 3.5 06:14:40 10° SSW 06:20:04 85° WNW 06:25:23 10° NNE
Cosmos 2369 Rocket 3.9 06:17:51 10° N 06:22:55 32° ENE 06:27:57 10° SE
Okean 1 Rocket 3.5 06:20:13 10° SSW 06:24:23 41° W 06:28:32 10° N
Skynet4D Del rocket 4.3 06:22:09 10° WSW 06:27:20 53° SSE 06:32:45 10° E
SMAP 3.7 06:23:15 10° NNE 06:27:51 61° E 06:32:26 10° S
COSMO-SKYMED 1 3.5 06:25:30 10° SSW 06:29:16 29° W 06:33:03 10° NW
Cosmos 1025 Rocket 3.9 06:26:04 10° N 06:30:22 55° E 06:34:37 10° SSE
Lacrosse 5 2.6 06:26:51 10° WSW 06:31:22 31° NW 06:35:53 10° NNE
